TimeEET,TemperatureF,Dew PointF,Humidity,Sea Level PressureIn,VisibilityMPH,Wind Direction,Wind SpeedMPH,Gust SpeedMPH,PrecipitationIn,Events,Conditions,WindDirDegrees,DateUTC
12:00 AM,80.6,59.0,48,29.86,-9999.0,North,11.5,-,N/A,,Clear,360,2012-10-12 22:00:00
1:00 AM,82.4,60.8,48,29.86,-9999.0,North,10.4,-,N/A,,Clear,360,2012-10-12 23:00:00
2:00 AM,80.6,62.6,54,29.86,-9999.0,North,11.5,-,N/A,,Clear,360,2012-10-13 00:00:00
3:00 AM,78.8,66.2,65,29.86,-9999.0,North,12.7,-,N/A,,Clear,360,2012-10-13 01:00:00
4:00 AM,78.8,66.2,65,29.86,-9999.0,North,12.7,-,N/A,,Clear,360,2012-10-13 02:00:00
5:00 AM,78.8,66.2,65,29.86,-9999.0,North,12.7,-,N/A,,Clear,360,2012-10-13 03:00:00
6:00 AM,78.8,66.2,65,29.89,-9999.0,North,11.5,-,N/A,,Clear,360,2012-10-13 04:00:00
7:00 AM,80.6,66.2,61,29.89,-9999.0,North,13.8,-,N/A,,Clear,360,2012-10-13 05:00:00
8:00 AM,84.2,66.2,55,29.89,-9999.0,North,17.3,-,N/A,,Clear,360,2012-10-13 06:00:00
9:00 AM,86.0,66.2,51,29.89,-9999.0,NNE,16.1,-,N/A,,Clear,20,2012-10-13 07:00:00
10:00 AM,87.8,64.4,46,29.89,-9999.0,NNE,12.7,-,N/A,,Clear,20,2012-10-13 08:00:00
11:00 AM,91.4,64.4,41,29.89,-9999.0,NNE,12.7,-,N/A,,Clear,30,2012-10-13 09:00:00
1:00 PM,96.8,59.0,28,29.86,-9999.0,NNE,6.9,-,N/A,,Clear,20,2012-10-13 11:00:00
2:00 PM,96.8,57.2,27,29.83,-9999.0,NNE,6.9,-,N/A,,Clear,30,2012-10-13 12:00:00
3:00 PM,96.8,53.6,23,29.83,-9999.0,NE,8.1,-,N/A,,Clear,40,2012-10-13 13:00:00
4:00 PM,93.2,57.2,30,29.83,-9999.0,NE,5.8,-,N/A,,Clear,40,2012-10-13 14:00:00
5:00 PM,89.6,59.0,36,29.83,6.2,NNE,4.6,-,N/A,,Partly Cloudy,30,2012-10-13 15:00:00
6:00 PM,86.0,59.0,40,29.83,6.2,NNE,8.1,-,N/A,,Partly Cloudy,20,2012-10-13 16:00:00
7:00 PM,84.2,55.4,37,29.86,-9999.0,NNE,6.9,-,N/A,,Clear,20,2012-10-13 17:00:00
8:00 PM,84.2,53.6,35,29.86,-9999.0,North,5.8,-,N/A,,Clear,360,2012-10-13 18:00:00
9:00 PM,84.2,55.4,37,29.86,-9999.0,North,4.6,-,N/A,,Clear,350,2012-10-13 19:00:00
10:00 PM,84.2,57.2,40,29.86,-9999.0,North,6.9,-,N/A,,Clear,360,2012-10-13 20:00:00
11:00 PM,84.2,60.8,45,29.86,-9999.0,North,8.1,-,N/A,,Clear,360,2012-10-13 21:00:00